�������r�C�����j�^�v���󋵏��
Date,Time,5�C6���@���p�r�C��,����,����(m/s)
2022/02/16,00:00,4.0,�k�k��,6.4
2022/02/16,00:10,4.0,�k�k��,7.0
2022/02/16,00:20,4.0,�k�k��,7.6
2022/02/16,00:30,4.1,�k�k��,7.3
2022/02/16,00:40,4.1,�k�k��,6.4
2022/02/16,00:50,4.3,�k�k��,6.0
2022/02/16,01:00,4.2,�k�k��,6.7
2022/02/16,01:10,4.0,�k,6.4
2022/02/16,01:20,4.2,�k�k��,5.2
2022/02/16,01:30,4.3,�k�k��,5.5
2022/02/16,01:40,4.1,�k��,5.9
2022/02/16,01:50,4.0,�k�k��,5.1
2022/02/16,02:00,4.1,�k�k��,5.2
2022/02/16,02:10,4.3,�k�k��,5.6
2022/02/16,02:20,4.0,�k,4.7
2022/02/16,02:30,3.9,�k�k��,4.3
2022/02/16,02:40,4.0,�k,4.1
2022/02/16,02:50,4.0,�k�k��,3.3
2022/02/16,03:00,4.1,�k��,3.0
2022/02/16,03:10,4.1,�k��,2.6
2022/02/16,03:20,4.2,�k��,2.0
2022/02/16,03:30,4.1,�k�k��,4.1
2022/02/16,03:40,4.1,�k,5.0
2022/02/16,03:50,4.1,�k,5.2
2022/02/16,04:00,4.1,�k�k��,4.1
2022/02/16,04:10,4.0,�k��,3.6
2022/02/16,04:20,4.0,�k�k��,4.5
2022/02/16,04:30,4.2,�k�k��,4.2
2022/02/16,04:40,4.1,�k�k��,4.1
2022/02/16,04:50,4.1,�k�k��,3.2
2022/02/16,05:00,4.1,�k�k��,3.8
2022/02/16,05:10,4.2,�k�k��,3.1
2022/02/16,05:20,4.2,�k�k��,4.0
2022/02/16,05:30,4.1,�k,5.7
2022/02/16,05:40,4.2,�k,5.2
2022/02/16,05:50,4.1,�k,4.3
2022/02/16,06:00,4.1,�k�k��,4.2
2022/02/16,06:10,4.1,�k�k��,3.1
2022/02/16,06:20,4.3,�k,2.9
2022/02/16,06:30,4.1,�k�k��,2.8
2022/02/16,06:40,4.1,�k�k��,2.0
2022/02/16,06:50,4.0,���k��,2.3
2022/02/16,07:00,4.1,�k��,2.5
2022/02/16,07:10,4.1,�k,1.5
2022/02/16,07:20,4.1,�k�k��,0.9
2022/02/16,07:30,4.1,-,CALM
2022/02/16,07:40,4.2,�k��,2.6
2022/02/16,07:50,4.2,�k��,3.3
2022/02/16,08:00,4.1,�k��,3.0
2022/02/16,08:10,4.1,�k��,3.4
2022/02/16,08:20,4.1,���k��,4.6
2022/02/16,08:30,4.1,�k��,4.2
2022/02/16,08:40,4.1,���k��,3.7
2022/02/16,08:50,4.0,���k��,2.6
2022/02/16,09:00,4.1,�k�k��,2.6
2022/02/16,09:10,4.1,���k��,2.8
2022/02/16,09:20,4.1,�k��,3.6
2022/02/16,09:30,4.0,���k��,3.2
2022/02/16,09:40,4.0,���k��,6.1
2022/02/16,09:50,4.2,���k��,4.0
2022/02/16,10:00,4.0,��,3.7
2022/02/16,10:10,4.1,�k��,4.1
2022/02/16,10:20,4.0,�k�k��,5.2
2022/02/16,10:30,4.0,�k�k��,2.6
2022/02/16,10:40,4.1,���k��,3.6
2022/02/16,10:50,4.2,���k��,6.4
2022/02/16,11:00,4.4,�k��,5.1
2022/02/16,11:10,4.3,���k��,5.4
2022/02/16,11:20,4.1,��,3.8
2022/02/16,11:30,4.0,��,7.3
2022/02/16,11:40,4.0,��,7.7
2022/02/16,11:50,4.1,��,8.5
2022/02/16,12:00,4.1,��,11.7
2022/02/16,12:10,4.0,���k��,9.9
2022/02/16,12:20,4.0,���k��,9.2
2022/02/16,12:30,4.2,���k��,5.0
2022/02/16,12:40,4.1,���k��,10.6
2022/02/16,12:50,4.0,���k��,9.3
2022/02/16,13:00,4.2,���쐼,5.3
2022/02/16,13:10,4.0,���k��,8.8
2022/02/16,13:20,4.2,���k��,8.3
2022/02/16,13:30,4.1,��,9.1
2022/02/16,13:40,4.1,��,9.1
2022/02/16,13:50,4.1,���쐼,9.6
2022/02/16,14:00,4.1,��,11.8
2022/02/16,14:10,4.1,���k��,8.8
2022/02/16,14:20,3.9,��,8.9
2022/02/16,14:30,4.0,��,9.5
2022/02/16,14:40,4.1,���k��,8.2
2022/02/16,14:50,4.0,���k��,7.2
2022/02/16,15:00,4.0,���k��,10.5
2022/02/16,15:10,4.1,��,11.6
2022/02/16,15:20,4.2,��,9.7
2022/02/16,15:30,4.2,��,8.5
2022/02/16,15:40,4.2,���k��,10.2
2022/02/16,15:50,4.0,��,6.4
2022/02/16,16:00,4.3,��,8.2
2022/02/16,16:10,4.0,��,8.6
2022/02/16,16:20,4.3,��,7.8
2022/02/16,16:30,4.0,��,9.3
2022/02/16,16:40,4.3,��,10.4
2022/02/16,16:50,4.1,��,10.2
2022/02/16,17:00,4.3,��,9.1
2022/02/16,17:10,4.2,���쐼,7.0
2022/02/16,17:20,4.4,��,6.0
2022/02/16,17:30,4.1,��,8.0
2022/02/16,17:40,4.1,��,10.3
2022/02/16,17:50,4.1,��,8.2
2022/02/16,18:00,4.0,���k��,7.7
2022/02/16,18:10,3.9,���k��,8.5
2022/02/16,18:20,4.2,��,8.0
2022/02/16,18:30,4.0,���k��,5.1
2022/02/16,18:40,4.1,���k��,3.9
2022/02/16,18:50,4.2,�k�k��,3.0
2022/02/16,19:00,4.1,�k,2.6
2022/02/16,19:10,4.1,�k�k��,3.4
2022/02/16,19:20,4.2,�k,4.4
2022/02/16,19:30,4.1,�k,3.8
2022/02/16,19:40,4.2,�k�k��,5.2
2022/02/16,19:50,4.0,�k��,5.8
2022/02/16,20:00,3.9,�k��,6.4
2022/02/16,20:10,4.1,���k��,7.8
2022/02/16,20:20,4.0,���k��,7.9
2022/02/16,20:30,4.2,�k��,7.4
2022/02/16,20:40,4.0,�k��,6.3
2022/02/16,20:50,4.0,�k��,6.6
2022/02/16,21:00,4.2,�k��,6.2
2022/02/16,21:10,4.0,�k��,5.3
2022/02/16,21:20,3.9,�k��,4.4
2022/02/16,21:30,4.1,�k��,5.0
2022/02/16,21:40,4.1,�k��,4.6
2022/02/16,21:50,4.3,�k��,5.4
2022/02/16,22:00,4.1,�k��,6.3
2022/02/16,22:10,3.9,�k��,6.6
2022/02/16,22:20,4.0,�k��,5.6
2022/02/16,22:30,4.1,�k��,5.3
2022/02/16,22:40,4.1,�k��,5.7
2022/02/16,22:50,4.1,�k��,3.1
2022/02/16,23:00,4.2,�k�k��,1.5
2022/02/16,23:10,4.1,�k,1.9
2022/02/16,23:20,4.1,�k,2.6
2022/02/16,23:30,3.8,�k�k��,2.6
2022/02/16,23:40,4.2,�k,3.8
2022/02/16,23:50,4.0,�k,3.6
